Flag for Spain Weather past 2 weeks in Santa Cruz de Tenerife, Canary Islands, Spain

Now
64 °F

Scattered clouds.


Feels Like: 64 °F
Forecast: 69 / 78 °F
Wind: 20 mph from Northwest

Location: Tenerife / Los Rodeos

Current Time: Jun 30, 2015 at 11:50:58 AM

Latest Report: Jun 30, 2015 at 11:00 AM


Visibility: N/A

Pressure: 30.15 "Hg

Humidity: 88%

Dew point: 61 °F

Location of Santa Cruz de TenerifeLocation

Historic Weather in Santa Cruz de Tenerife — Graph

°F

Santa Cruz de Tenerife temperature yesterday

Maximum temperature yesterday: 84 °F (at 1:30 PM)
Minimum temperature yesterday: 59 °F (at 6:00 AM)
Average temperature yesterday: 69 °F

Past Weeks' High & Low Weather Summary

 TemperatureHumidityPressure
High84 °F (Jun 29, 1:30 PM)100% (Jun 18, 10:30 PM)30.27 "Hg (Jun 18, 10:30 PM)
Low55 °F (Jun 19, 6:30 AM)37% (Jun 29, 2:00 PM)30.09 "Hg (Jun 18, 6:30 PM)
Average64 °F81%30.18 "Hg
* Reported Jun 15 10:00 AM — Jun 30 10:30 AM, Santa Cruz de Tenerife, Weather by CustomWeather, © 2015

Note: Actual official high and low records may vary slightly from our data, if they occured in-between our weather recording intervals... More about our weather records

Advertising

Santa Cruz de Tenerife weather history for previous 24 hours

 ConditionsComfort  
Time TempWeatherWind HumidityBarometerVisibility
10:30 AM
Tue, Jun 30
64 °FScattered clouds.20 mph88%30.15 "HgN/A
10:00 AM63 °FPartly sunny.17 mph94%30.15 "HgN/A
9:30 AM61 °FPartly sunny.17 mph100%30.15 "Hg4 mi
9:00 AM61 °FFog.15 mph100%30.12 "Hg1 mi
8:30 AM61 °FFog.16 mph100%30.12 "Hg0 mi
8:00 AM61 °FFog.18 mph100%30.12 "Hg0 mi
7:30 AM59 °FFog.17 mph100%30.12 "Hg0 mi
7:00 AM59 °FFog.17 mph100%30.09 "Hg0 mi
6:30 AM61 °FFog.16 mph100%30.09 "Hg0 mi
6:00 AM59 °FFog.15 mph100%30.09 "Hg1 mi
11:00 PM
Mon, Jun 29
61 °FPassing clouds.10 mph100%30.18 "Hg1 mi
10:30 PM63 °FPartly cloudy.10 mph94%30.15 "Hg1 mi
10:00 PM63 °FBroken clouds.12 mph94%30.15 "Hg1 mi
9:30 PM63 °FBroken clouds.13 mph94%30.15 "Hg1 mi
9:00 PM63 °FFog.13 mph100%30.15 "Hg1 mi
8:45 PM63 °FFog.12 mph100%30.15 "Hg1 mi
8:30 PM63 °FMild.12 mph94%30.15 "Hg3 mi
8:00 PM64 °FMild.14 mph94%30.15 "HgN/A
7:30 PM66 °FScattered clouds.15 mph88%30.12 "HgN/A
7:00 PM66 °FPassing clouds.17 mph88%30.12 "HgN/A
6:30 PM70 °FPassing clouds.15 mph78%30.12 "HgN/A
6:00 PM72 °FPassing clouds.13 mph73%30.15 "HgN/A
5:30 PM73 °FPassing clouds.13 mph74%30.15 "HgN/A
5:00 PM73 °FPassing clouds.12 mph74%30.15 "HgN/A
4:30 PM77 °FPassing clouds.10 mph61%30.15 "HgN/A
4:00 PM77 °FPassing clouds.9 mph61%30.15 "HgN/A
3:30 PM79 °FPassing clouds.9 mph58%30.15 "HgN/A
3:00 PM77 °FPassing clouds.10 mph65%30.18 "HgN/A
2:30 PM77 °FPassing clouds.12 mph65%30.18 "HgN/A
2:00 PM84 °FPassing clouds.7 mph37%30.18 "HgN/A
1:30 PM84 °FSunny.3 mph43%30.18 "Hg10 mi
1:00 PM79 °FPassing clouds.8 mph58%30.18 "HgN/A
12:30 PM75 °FSunny.12 mph65%30.18 "Hg10 mi
12:00 PM77 °FPassing clouds.5 mph57%30.18 "HgN/A
11:30 AM75 °FSunny.8 mph65%30.18 "Hg10 mi
11:00 AM72 °FSunny.10 mph69%30.18 "Hg10 mi
Weather by CustomWeather, © 2015

See weather overviewHow to use our weather pages